{"data":{"norad_id":62302,"epoch":"2026-05-24T20:25:06.832128Z","epoch_age_seconds":95118,"freshness":"FRESH","line1":"1 62302U 24239B   26144.85077352  .00010525  00000+0  36694-3 0  9990","line2":"2 62302  53.1591 197.9424 0001353  89.1274 270.9882 15.30203299 81074","mean_motion":15.30203299,"eccentricity":0.0001353,"inclination_deg":53.1591,"raan_deg":197.9424,"arg_perigee_deg":89.1274,"mean_anomaly_deg":270.9882,"bstar":0.00036694,"rev_number":8107,"period_min":94.105142822594,"perigee_km":474.27796201541,"apogee_km":476.13247641993,"semimajor_km":6853.3422192177,"source":"CELESTRAK","updated_at":"2026-05-25T13:38:19.647171Z"}}